EW6613 Weather Reports


time (UTC)temp
C
wind
direction
speed
KPH
gust
KPH
rain 1hr
cm
rain 24hr
cm
rain mn
cm
humidity
%
barometer
mb
20260505070012 5 178 0.0 0.0 0.00 0.30 0.00 91 1009.8
20260505064511 5 153 0.0 0.0 0.00 0.43 0.00 91 1009.6
20260505063008 5 159 0.0 0.0 0.00 0.43 0.00 91 1009.3
20260505061506 5 174 0.0 0.0 0.00 0.43 0.00 90 1008.9
20260505060004 5 196 0.0 0.0 0.00 0.48 0.00 89 1008.7
20260505054502 6 263 0.0 0.0 0.00 0.48 0.00 88 1008.5
20260505053058 6 320 0.0 0.0 0.00 0.48 0.00 85 1008.4
20260505051555 8 219 0.0 0.0 0.00 0.48 0.00 81 1007.8
20260505041550 7 208 0.0 0.0 0.00 0.58 0.00 85 1006.8
20260505040054 7 290 0.0 0.0 0.00 0.58 0.00 85 1006.7
20260505034552 6 209 0.0 0.0 0.00 0.66 0.00 86 1006.9
20260505033045 7 256 0.0 0.0 0.00 0.66 0.00 82 1006.7
20260505031552 10 183 0.0 0.0 0.00 0.66 0.00 76 1006.3
20260505030037 10 189 0.0 0.0 0.00 0.66 0.00 75 1005.9
20260505024546 10 221 0.0 0.0 0.00 0.69 0.66 74 1005.8
20260505023040 10 209 0.0 0.0 0.00 0.69 0.66 74 1005.6
20260505021532 10 250 0.0 0.0 0.00 0.69 0.66 73 1005.4
20260505020031 10 183 0.0 0.0 0.00 0.69 0.66 74 1005.2
20260505014540 10 206 0.0 0.0 0.00 0.71 0.66 74 1005.1
20260505013029 8 216 0.0 0.0 0.00 0.71 0.66 77 1005.2
20260505011529 8 266 0.0 0.0 0.00 0.71 0.66 77 1005.2
20260505010028 8 227 0.0 0.0 0.00 0.71 0.66 76 1005.1
20260505004528 8 222 0.0 0.0 0.00 0.81 0.66 74 1005.1
20260505003026 9 150 0.0 0.0 0.00 0.81 0.66 74 1005.1
20260505001525 10 234 0.0 0.0 0.00 0.81 0.66 72 1005.0
20260505000024 10 161 0.0 0.0 0.00 0.81 0.66 68 1004.6
20260504234521 8 198 0.0 0.0 0.00 1.19 0.66 72 1004.4
20260504233018 8 248 0.0 0.0 0.00 1.19 0.66 72 1003.8
20260504231517 9 214 0.0 0.0 0.00 1.19 0.66 68 1003.4
20260504230015 9 254 0.0 0.0 0.00 1.19 0.66 68 1003.3
20260504224516 9 232 0.0 0.0 0.00 1.73 0.66 68 1003.1
20260504223014 8 252 0.0 0.0 0.00 1.73 0.66 69 1003.1
20260504221512 8 262 0.0 0.0 0.00 1.73 0.66 72 1003.1
20260504220011 8 198 0.0 0.0 0.00 1.73 0.66 72 1002.9
20260504214510 9 227 0.0 0.0 0.00 2.16 0.66 71 1002.7
20260504213011 10 202 0.0 0.0 0.00 2.16 0.66 69 1002.8
20260504211514 11 186 0.0 0.0 0.00 2.16 0.66 66 1002.7
20260504210006 11 168 0.0 0.0 0.00 2.49 0.66 68 1002.5
20260504204510 11 192 0.0 0.0 0.00 2.49 0.66 68 1002.5
20260504203004 11 212 0.0 0.0 0.00 2.49 0.66 68 1002.3
20260504201504 11 273 0.0 0.0 0.00 2.49 0.66 65 1002.1
20260504200002 11 265 0.0 0.0 0.00 2.57 0.66 64 1001.8
20260504194558 11 186 0.0 0.0 0.00 2.57 0.66 64 1001.5
20260504193057 11 225 0.0 0.0 0.00 2.57 0.66 65 1001.1
20260504191600 11 263 0.0 0.0 0.00 2.57 0.66 66 1000.8
20260504190055 11 273 0.0 0.0 0.00 2.57 0.66 70 1000.8
20260504184550 10 148 0.0 0.0 0.00 2.62 0.66 72 1000.6
20260504183046 10 285 0.0 0.0 0.00 2.62 0.66 73 1000.4
20260504181544 10 210 0.0 0.0 0.00 2.62 0.66 76 1000.3
20260504180041 8 175 0.0 0.0 0.00 2.62 0.66 79 1000.3
20260504174539 8 266 0.0 0.0 0.00 2.62 0.66 81 1000.0
20260504173040 7 231 0.0 0.0 0.00 2.62 0.66 82 999.7
20260504171532 7 182 0.0 0.0 0.00 2.62 0.66 83 999.5
20260504081503 3 200 0.0 0.0 0.00 2.34 0.38 96 979.9